Regional Weather Roundup
Issued by NWS

Home | Current Version | Previous Version | Text Only | Print | Product List | Glossary On
Versions: 1 2 3 4 5 6 7 8 9 10 11 12 13 14 15 16 17 18 19 20 21 22 23 24 25 26 27 28 29 30 31 32 33 34 35 36 37 38 39 40 41 42 43 44 45 46 47 48 49 50
000
ASUS43 KDTX 180001
RWRMI
MICHIGAN HOURLY REGIONAL WEATHER ROUNDUP
NATIONAL WEATHER SERVICE DETROIT/PONTIAC MI
800 PM EDT WED SEP 17 2014

NOTE: "FAIR" INDICATES FEW OR NO CLOUDS BELOW 12,000 FEET WITH NO
SIGNIFICANT WEATHER AND/OR OBSTRUCTION TO VISIBILITY.

MIZ047>049-052>055-059>063-066>070-074>076-081>083-180100-
SOUTHEAST LOWER MICHIGAN

CITY           SKY/WX    TMP DP  RH WIND       PRES   REMARKS
ADRIAN         PTCLDY    59  46  62 N3        29.99S
6HR MIN TEMP:  59; 6HR MAX TEMP:  68;

ALMA           CLEAR     58  47  67 W3        29.98S
ANN ARBOR      CLEAR     57  45  64 CALM      29.98S
BAD AXE        CLEAR     56  49  78 CALM      29.97S
6HR MIN TEMP:  56; 6HR MAX TEMP:  67;

CARO           CLEAR     51  49  93 CALM      29.97R
DETROIT CITY   MOCLDY    65  42  43 CALM      29.98S
6HR MIN TEMP:  65; 6HR MAX TEMP:  70;

DETROIT        PTCLDY    62  43  49 NW6       29.98S
6HR MIN TEMP:  62; 6HR MAX TEMP:  68;

FLINT          CLEAR     60  46  59 W3        29.98S
6HR MIN TEMP:  60; 6HR MAX TEMP:  69;

GROSSE ILE     MOCLDY    61  48  63 CALM      29.97R
HILLSDALE      CLEAR     53  49  86 CALM      29.99S
6HR MIN TEMP:  53; 6HR MAX TEMP:  68;

HOWELL         CLEAR     56  46  67 CALM      29.98S HAZE
6HR MIN TEMP:  56; 6HR MAX TEMP:  66;


CITY           SKY/WX    TMP DP  RH WIND       PRES   REMARKS
JACKSON        CLEAR     55  48  77 CALM      29.99S
6HR MIN TEMP:  55; 6HR MAX TEMP:  67;

LAMBERTVILLE   PTCLDY    55  52  88 CALM      29.99R
LANSING        CLEAR     57  48  72 W7        29.99S
6HR MIN TEMP:  57; 6HR MAX TEMP:  67;

LAPEER         FAIR      53  49  85 CALM      29.98S
MASON          PTCLDY    58  47  68 CALM      29.98S
MONROE         PTCLDY    55  48  76 CALM      29.97R
MT. CLEMENS    PTCLDY    58  45  61 CALM      29.96S
6HR MIN TEMP:  58; 6HR MAX TEMP:  66;

PONTIAC        PTCLDY    61  43  51 CALM      29.97F
6HR MIN TEMP:  60; 6HR MAX TEMP:  67;

PORT HOPE        N/A     56  48  74 SW3       29.95S
6HR MIN TEMP:  56; 6HR MAX TEMP:  70;

PORT HURON     CLEAR     52  50  93 CALM      29.98S
TRI CITIES     CLEAR     60  49  66 SW5       29.98R
6HR MIN TEMP:  60; 6HR MAX TEMP:  70;

TROY           MOCLDY    64  42  45 CALM      30.00S HAZE
SAGINAW HB     PTCLDY    59  46  63 SW3       29.97S
$$
MIZ043>046-050>051-056>058-064>065-071>073-077>080-180100-
SOUTHWEST LOWER MICHIGAN

CITY           SKY/WX    TMP DP  RH WIND       PRES   REMARKS
BATTLE CREEK   CLEAR     58  47  66 NW6       30.00R
6HR MIN TEMP:  58; 6HR MAX TEMP:  67;

BENTON HARBOR  CLEAR     54  48  80 CALM      29.99F
6HR MIN TEMP:  54; 6HR MAX TEMP:  65;

BIG RAPIDS     CLEAR     56  49  78 W3        29.98R
6HR MIN TEMP:  56; 6HR MAX TEMP:  66;

COLDWATER      PTCLDY    60  48  64 CALM      29.99R
6HR MIN TEMP:  60; 6HR MAX TEMP:  69;

FREMONT        FAIR      57  44  61 W3        29.99R
HOLLAND        CLEAR     57  48  72 CALM      30.00S
6HR MIN TEMP:  57; 6HR MAX TEMP:  67;

GRAND RAPIDS   CLEAR     60  44  55 W5        30.00R
6HR MIN TEMP:  59; 6HR MAX TEMP:  67;

IONIA          FAIR      59  46  62 NW3       29.99R
KALAMAZOO      CLEAR     58  46  64 W5        30.00S
6HR MIN TEMP:  58; 6HR MAX TEMP:  68;

LUDINGTON      CLEAR     57  50  77 SW3       29.99S
6HR MIN TEMP:  57; 6HR MAX TEMP:  64;

MARSHALL       CLEAR     57  46  67 W8        29.98S
MOUNT PLEASANT CLEAR     57  48  70 W3        29.97S
6HR MIN TEMP:  57; 6HR MAX TEMP:  69;

MUSKEGON       PTCLDY    58  47  66 S6        30.00S
6HR MIN TEMP:  58; 6HR MAX TEMP:  67;

SOUTH HAVEN    CLEAR     55  51  84 CALM      29.99S
$$
MIZ016>042-180100-
NORTHERN LOWER MICHIGAN

CITY           SKY/WX    TMP DP  RH WIND       PRES   REMARKS
ALPENA         MOCLDY    60  47  61 NW5       29.95R
6HR MIN TEMP:  60; 6HR MAX TEMP:  70;

BEAVER ISLAND  CLOUDY    52  45  77 N9        30.01R
6HR MIN TEMP:  52; 6HR MAX TEMP:  66;

BELLAIRE       CLOUDY    58  51  77 CALM      29.97R
6HR MIN TEMP:  58; 6HR MAX TEMP:  67;

CADILLAC       CLEAR     55  47  72 W3        29.98S
CHARLEVOIX     CLOUDY    56  50  78 N13G18    30.02R
6HR MIN TEMP:  56; 6HR MAX TEMP:  66;

FRANKFORT      PTCLDY    60  52  72 CALM      29.97S
GAYLORD        CLEAR     56  44  64 NW3       29.98R
6HR MIN TEMP:  56; 6HR MAX TEMP:  65;

GRAYLING       CLEAR     54  46  75 W3        29.98R
6HR MIN TEMP:  54; 6HR MAX TEMP:  69;

HARBOR SPRINGS MOCLDY    56  47  74 N8        29.98R
HOUGHTON LAKE  CLEAR     57  45  64 NW6       29.97S
6HR MIN TEMP:  57; 6HR MAX TEMP:  66;

MANISTEE       CLEAR     59  46  63 CALM      29.98S
OSCODA         CLEAR     57  49  73 SW3       29.94S
PELLSTON       CLOUDY    55  46  71 N9        30.00R
6HR MIN TEMP:  55; 6HR MAX TEMP:  67;

ROGERS CITY    CLOUDY    55  52  90 N10       29.99R
TRAVERSE CITY  PTCLDY    60  48  64 SW3       29.96R
6HR MIN TEMP:  60; 6HR MAX TEMP:  68;

$$
MIZ007>008-015-180100-
EASTERN UPPER MICHIGAN

CITY           SKY/WX    TMP DP  RH WIND       PRES   REMARKS
KINROSS        CLOUDY    50  45  81 N7        30.00R
6HR MIN TEMP:  50; 6HR MAX TEMP:  63;

MACKINAC ISLAN CLOUDY    51  46  80 N13       30.00R
6HR MIN TEMP:  51; 6HR MAX TEMP:  63;

NEWBERRY       CLOUDY    44  40  85 N9        30.03R
S. S. MARIE    CLOUDY    48  41  76 N8        30.00R
6HR MIN TEMP:  48; 6HR MAX TEMP:  59; 6HR PCP: TRACE;

$$
MIZ004>006-011>014-085-180100-
CENTRAL UPPER MICHIGAN

CITY           SKY/WX    TMP DP  RH WIND       PRES   REMARKS
MANISTIQUE     CLOUDY    47  42  81 N10       30.03R
ESCANABA       CLOUDY    48  41  76 N9G16     30.03R
6HR MIN TEMP:  48; 6HR MAX TEMP:  66;

MENOMINEE      CLOUDY    55  48  76 NE15G21   29.97R
6HR MIN TEMP:  55; 6HR MAX TEMP:  70;

SAWYER-GWINN   CLOUDY    41  39  93 N15       30.05R
$$
MIZ001>003-009>011-084-180100-
WESTERN UPPER MICHIGAN

CITY           SKY/WX    TMP DP  RH WIND       PRES   REMARKS
IRON MOUNTAIN  MOCLDY    50  43  77 NE8       30.02R
6HR MIN TEMP:  50; 6HR MAX TEMP:  71;

HOUGHTON       CLEAR     40  33  76 NE6       30.09R
6HR MIN TEMP:  40; 6HR MAX TEMP:  47;

COPPER HARBOR    N/A     43  35  73 E12       30.11R
6HR MIN TEMP:  43; 6HR MAX TEMP:  45;

IRONWOOD       CLOUDY    46  45  93 NE8       30.04R
6HR MIN TEMP:  46; 6HR MAX TEMP:  55;

$$

ABBREVIATIONS USED IN REMARKS
   TC - TEMPERATURE IN CELSIUS
  WCI - WIND CHILL INDEX
   HX - HEAT INDEX
  VSB - VISIBILITY




USA.gov is the U.S. government's official web portal to all federal, state and local government web resources and services.